Regional Weather Roundup
Issued by NWS Cleveland, OH

Home | Current Version | Previous Version | Graphics & Text | Print | Product List | Glossary On
Versions: 1 2 3 4 5 6 7 8 9 10 11 12 13 14 15 16 17 18 19 20 21 22 23 24 25 26 27 28 29 30 31 32 33 34 35 36 37 38 39 40 41 42 43 44 45 46 47 48 49 50
000
ASUS41 KCLE 010610
RWRCLE
OHIO REGIONAL WEATHER ROUNDUP
NATIONAL WEATHER SERVICE WILMINGTON, OH
200 AM EDT WED JUL 01 2015

NOTE: "FAIR" INDICATES FEW OR NO CLOUDS BELOW 12,000 FEET WITH NO
SIGNIFICANT WEATHER AND/OR OBSTRUCTIONS TO VISIBILITY.

OHZ001>008-015>018-024>027-034-035-043-044-010700-
   NORTHWEST OHIO

CITY           SKY/WX    TMP DP  RH WIND       PRES   REMARKS
DEFIANCE       CLEAR     61  58  90 VRB3      29.84
FINDLAY        PTCLDY    63  59  87 W7        29.83
TOLEDO EXPRESS CLEAR     61  58  90 W7        29.81
TOLEDO EXEC    CLEAR     63  59  87 W7        29.81
LIMA           CLEAR     63  58  83 W12       29.85
$$

OHZ009>014-019>023-028>033-038-089-010700-
   NORTHEAST OHIO

CITY           SKY/WX    TMP DP  RH WIND       PRES   REMARKS
CLE-HOPKINS    MOCLDY    64  61  90 SW7       29.81S
CLE-LAKEFRONT  MOCLDY    67  62  84 SW12      29.78
CUY CO. ARPT   NOT AVBL
LORAIN-ELYRIA  CLOUDY    64  60  87 W6        29.80
ASHTABULA      MOCLDY    63  62  97 S9        29.79
AKRON-CANTON   CLOUDY    63  60  90 SW7       29.83  FOG
WOOSTER        CLOUDY    63  62  97 SW8       29.83R FOG
MANSFIELD      CLEAR     63  62  97 W7        29.83
YOUNGSTOWN     CLOUDY    64  63  96 S7        29.81  THUNDER FOG
$$

OHZ042-051>053-060>062-070>072-077>081-010700-
  SOUTHWEST OHIO

CITY           SKY/WX    TMP DP  RH WIND       PRES   REMARKS
CINC-COVINGTON PTCLDY    64  62  93 W5        29.90R FOG
CINC-LUNKEN    PTCLDY    63  58  83 S3        29.89
HAMILTON       PTCLDY    65  63  93 VRB3      29.90  FOG
DAYTON         PTCLDY    65  62  90 SW6       29.88F
WRIGHT-PAT AFB MOCLDY    63  63  99 S6        29.87S
DAYTON GENERAL PTCLDY    64  62  93 SW3       29.88  FOG
WILMINGTON     PTCLDY    63  60  90 SW9       29.88  FOG
$$

OHZ036-037-039>041-045>050-054>059-063>069-073>076-082>088-010700-
  CENTRAL AND SOUTHEAST OHIO

CITY           SKY/WX    TMP DP  RH WIND       PRES   REMARKS
COLUMBUS       CLEAR     61  60  97 S3        29.84
OSU AIRPORT    CLEAR     63  61  93 SW7       29.84  FOG
BOLTON FIELD   CLEAR     62  61  97 SW7       29.86F FOG
RICKENBACK AFB CLEAR     59  58  97 S6        29.85F FOG
NEWARK         CLEAR     61  59  93 CALM      29.84
MARION         CLEAR     65  60  84 W7        29.84
LANCASTER      CLEAR     62  59  90 CALM      29.86
ZANESVILLE     PTCLDY    60  57  89 S5        29.84  FOG
NEW PHILLY     CLOUDY    61  59  93 S3        29.84
$$



USA.gov is the U.S. government's official web portal to all federal, state and local government web resources and services.